Weather History for KISQ - September, 2013

Change the Weather History Date:

Friday, September 6, 2013

  Actual Average Record
Temperature  
Mean Temperature 60 °F -  
Max Temperature 69 °F 68 °F 80 °F (1960)
Min Temperature 50 °F 50 °F 33 °F (2011)
Degree Days  
Heating Degree Days 6    
Growing Degree Days 10 (Base 50)    
Moisture  
Dew Point 58 °F    
Average Humidity 86    
Maximum Humidity 99    
Minimum Humidity 60    
Precipitation  
Precipitation 0.09 in - - ()
Sea Level Pressure  
Sea Level Pressure 30.09 in    
Wind  
Wind Speed 6 mph (SSW)    
Max Wind Speed 15 mph    
Max Gust Speed 22 mph    
Visibility 10 miles    
Events Rain    
Averages and records for this station are not official NWS values.
T = Trace of Precipitation, MM = Missing Value Source: NWS Daily Summary

Daily Weather History Graph

Daily Weather History Graph

Search for Another Location

Airport or City:

Trip Planner

Search our weather history database for the weather conditions in past years. The results will help you decide how hot, cold, wet, or windy it might be!

Date:

Astronomy

Sep. 06, 2013 Rise Set
Actual Time 7:11 AM EDT 8:12 PM EDT
Civil Twilight 6:41 AM EDT 8:43 PM EDT
Nautical Twilight 6:04 AM EDT 9:19 PM EDT
Astronomical Twilight 5:26 AM EDT 9:58 PM EDT
Moon 8:30 AM EDT 8:28 PM EDT
Length of Visible Light 14h 01m
Length of Day
13h 01m
New Moon, 1% of the Moon is Illuminated
Sep 6
New Moon
Sep 12
First Quarter
Sep 19
Full
Sep 26
Last Quarter
Oct 4
New

Hourly Weather History & Observations

Time (EDT) Temp. Dew Point Humidity Pressure Visibility Wind Dir Wind Speed Gust Speed Precip Events Conditions
12:15 AM 57.4 °F 53.4 °F 87% 30.21 in 10.0 mi SW 3.5 mph - N/A   Clear
12:34 AM 57.6 °F 53.4 °F 86% 30.20 in 10.0 mi SW 4.6 mph - N/A   Clear
12:54 AM 57.7 °F 53.8 °F 87% 30.20 in 10.0 mi SW 5.8 mph - N/A   Clear
1:14 AM 58.1 °F 54.0 °F 86% 30.21 in 10.0 mi SW 3.5 mph - N/A   Clear
1:34 AM 57.4 °F 53.8 °F 88% 30.20 in 10.0 mi SW 4.6 mph - N/A   Clear
1:55 AM 58.1 °F 53.8 °F 86% 30.20 in 10.0 mi WSW 3.5 mph - N/A   Clear
2:14 AM 58.1 °F 53.8 °F 86% 30.20 in 10.0 mi Calm Calm - N/A   Clear
2:34 AM 57.2 °F 53.1 °F 86% 30.19 in 10.0 mi Calm Calm - N/A   Clear
2:55 AM 57.4 °F 53.6 °F 87% 30.19 in 10.0 mi SW 4.6 mph - N/A   Clear
3:14 AM 57.4 °F 53.8 °F 88% 30.18 in 10.0 mi SW 4.6 mph - N/A   Clear
3:34 AM 58.1 °F 54.5 °F 88% 30.18 in 10.0 mi SW 5.8 mph - N/A   Clear
3:55 AM 59.0 °F 54.5 °F 85% 30.18 in 10.0 mi SW 5.8 mph - N/A   Clear
4:14 AM 59.0 °F 54.5 °F 85% 30.17 in 10.0 mi SW 5.8 mph - N/A   Clear
4:35 AM 57.4 °F 53.2 °F 86% 30.17 in 10.0 mi SW 4.6 mph - N/A   Clear
4:54 AM 56.3 °F 53.1 °F 89% 30.18 in 10.0 mi Calm Calm - N/A   Clear
5:14 AM 53.2 °F 52.0 °F 95% 30.17 in 10.0 mi Calm Calm - N/A   Clear
5:35 AM 51.8 °F 50.9 °F 97% 30.17 in 10.0 mi Calm Calm - N/A   Clear
5:54 AM 50.9 °F 50.5 °F 99% 30.17 in 10.0 mi Calm Calm - N/A   Clear
6:14 AM 51.8 °F 51.1 °F 97% 30.17 in 10.0 mi Calm Calm - N/A   Clear
6:35 AM 54.5 °F 54.0 °F 98% 30.16 in 10.0 mi Calm Calm - N/A   Clear
6:54 AM 54.5 °F 54.0 °F 98% 30.16 in 10.0 mi Calm Calm - N/A   Clear
7:15 AM 53.6 °F 53.2 °F 99% 30.16 in 7.0 mi Calm Calm - N/A   Clear
7:34 AM 52.2 °F 51.8 °F 99% 30.17 in 10.0 mi Calm Calm - N/A   Clear
7:54 AM 55.8 °F 54.9 °F 97% 30.18 in 10.0 mi WSW 3.5 mph - N/A   Clear
8:15 AM 56.7 °F 55.4 °F 96% 30.18 in 10.0 mi West 3.5 mph - N/A   Clear
8:34 AM 57.9 °F 55.8 °F 92% 30.18 in 10.0 mi WSW 3.5 mph - N/A   Clear
8:54 AM 59.0 °F 55.4 °F 88% 30.17 in 10.0 mi WSW 4.6 mph - N/A   Clear
9:15 AM 60.1 °F 55.9 °F 86% 30.16 in 10.0 mi SSW 5.8 mph - N/A   Clear
9:34 AM 61.0 °F 56.3 °F 85% 30.15 in 10.0 mi SSW 5.8 mph - N/A   Clear
9:54 AM 62.2 °F 56.8 °F 82% 30.16 in 10.0 mi SW 4.6 mph - N/A   Clear
10:15 AM 64.4 °F 57.4 °F 78% 30.15 in 10.0 mi SSW 6.9 mph - N/A   Clear
10:34 AM 65.7 °F 56.1 °F 71% 30.15 in 10.0 mi SSW 9.2 mph - N/A   Clear
10:55 AM 67.1 °F 54.5 °F 64% 30.15 in 10.0 mi SW 8.1 mph 16.1 mph N/A   Clear
11:14 AM 68.0 °F 53.8 °F 60% 30.14 in 10.0 mi SSW 11.5 mph 17.3 mph N/A   Clear
11:34 AM 68.9 °F 55.0 °F 61% 30.12 in 10.0 mi SSW 9.2 mph - N/A   Clear
11:55 AM 67.8 °F 56.3 °F 67% 30.10 in 10.0 mi South 15.0 mph 21.9 mph N/A   Clear
12:14 PM 67.8 °F 56.3 °F 67% 30.10 in 10.0 mi South 12.7 mph 19.6 mph N/A   Clear
12:34 PM 67.8 °F 55.8 °F 65% 30.10 in 10.0 mi South 13.8 mph 20.7 mph N/A   Clear
12:55 PM 68.0 °F 58.5 °F 71% 30.08 in 10.0 mi South 15.0 mph 21.9 mph N/A   Clear
1:14 PM 66.9 °F 57.7 °F 72% 30.08 in 10.0 mi SSW 13.8 mph - N/A   Clear
1:35 PM 67.1 °F 57.4 °F 71% 30.08 in 10.0 mi SSW 13.8 mph 21.9 mph N/A   Clear
1:54 PM 67.3 °F 57.6 °F 71% 30.08 in 10.0 mi SSW 13.8 mph 18.4 mph N/A   Scattered Clouds
2:14 PM 67.8 °F 58.1 °F 71% 30.08 in 10.0 mi South 11.5 mph 20.7 mph N/A   Scattered Clouds
2:35 PM 67.1 °F 58.6 °F 74% 30.08 in 10.0 mi South 12.7 mph 20.7 mph N/A   Mostly Cloudy
2:54 PM 66.4 °F 59.9 °F 80% 30.08 in 10.0 mi South 12.7 mph 17.3 mph N/A   Mostly Cloudy
3:15 PM 66.2 °F 59.7 °F 80% 30.07 in 10.0 mi SSW 12.7 mph 18.4 mph N/A   Clear
3:34 PM 66.2 °F 60.3 °F 81% 30.06 in 10.0 mi SSW 13.8 mph - N/A   Clear
3:54 PM 66.2 °F 60.8 °F 83% 30.05 in 10.0 mi SSW 10.4 mph - N/A   Clear
4:15 PM 66.9 °F 60.8 °F 81% 30.04 in 10.0 mi SSW 9.2 mph - N/A   Clear
4:34 PM 67.8 °F 61.0 °F 79% 30.04 in 10.0 mi SSW 11.5 mph 16.1 mph N/A   Clear
4:54 PM 68.7 °F 61.7 °F 78% 30.02 in 10.0 mi SSW 12.7 mph 17.3 mph N/A   Clear
5:15 PM 69.3 °F 62.6 °F 79% 30.02 in 10.0 mi SSW 10.4 mph 18.4 mph N/A   Scattered Clouds
5:34 PM 66.9 °F 62.6 °F 86% 30.01 in 10.0 mi South 10.4 mph 17.3 mph N/A   Scattered Clouds
5:54 PM 65.8 °F 63.1 °F 91% 30.00 in 10.0 mi SSW 11.5 mph 16.1 mph N/A   Scattered Clouds
6:15 PM 64.9 °F 63.5 °F 95% 30.00 in 10.0 mi SSW 10.4 mph - N/A Rain Light Rain
6:34 PM 64.9 °F 63.5 °F 95% 30.00 in 10.0 mi SSW 9.2 mph - N/A Rain Rain
6:55 PM 65.3 °F 63.5 °F 94% 29.99 in 10.0 mi SSW 10.4 mph - N/A   Scattered Clouds
7:14 PM 64.9 °F 63.5 °F 95% 29.99 in 10.0 mi SSW 10.4 mph - N/A   Mostly Cloudy
7:34 PM 64.4 °F 63.1 °F 96% 29.98 in 7.0 mi SSW 11.5 mph - 0.01 in Rain Rain
7:55 PM 63.9 °F 63.1 °F 97% 29.97 in 5.0 mi SSW 10.4 mph - 0.04 in Rain Light Rain
8:14 PM 64.4 °F 63.5 °F 97% 29.97 in 10.0 mi SSW 9.2 mph - N/A Rain Rain
8:34 PM 64.4 °F 63.5 °F 97% 29.97 in 7.0 mi SSW 10.4 mph - 0.02 in Rain Rain
8:55 PM 64.4 °F 63.5 °F 97% 29.95 in 7.0 mi SSW 8.1 mph 16.1 mph 0.04 in Rain Light Rain
9:14 PM 64.4 °F 63.3 °F 96% 29.96 in 10.0 mi SSW 8.1 mph - 0.01 in   Overcast
9:34 PM 64.4 °F 63.5 °F 97% 29.95 in 10.0 mi SSW 6.9 mph - 0.01 in   Overcast
9:54 PM 64.4 °F 63.5 °F 97% 29.95 in 10.0 mi SW 5.8 mph - 0.01 in   Overcast
10:14 PM 64.4 °F 63.5 °F 97% 29.95 in 10.0 mi SSW 6.9 mph - N/A   Overcast
10:35 PM 64.4 °F 63.1 °F 96% 29.95 in 10.0 mi SW 9.2 mph - N/A   Overcast
10:54 PM 64.4 °F 63.0 °F 95% 29.94 in 10.0 mi SSW 9.2 mph - N/A   Overcast
11:15 PM 64.4 °F 63.1 °F 96% 29.94 in 10.0 mi SSW 8.1 mph - N/A   Overcast
11:34 PM 64.4 °F 63.0 °F 95% 29.94 in 10.0 mi SSW 6.9 mph - N/A   Overcast
11:54 PM 64.4 °F 63.0 °F 95% 29.93 in 10.0 mi SSW 6.9 mph - N/A   Overcast